Location: Dackenheim
(49.5215°N, 8.1854°E)
Time: 02:37:36
(UTC+00:00)

UWE-3 - Pass Details

Date: 16 March 2026
Orbit: 543 x 612 km, 97.9° (Epoch: 12 April)

Event Time Altitude Azimuth Distance (km) Brightness Sun altitude
Rises 04:05:14 0° 357° (N) 2,891 ? -15.9°
Reaches altitude 10° 04:08:42 10° 328° (NNW) 1,972 ? -15.3°
Enters shadow 04:10:15 12° 306° (NW) 1,827 ? -15.1°
